Year,Month,Day,Hour,Minute,Value (Times are PST for insolation in W/m^2)
2013,05,16,00,00,0.00
2013,05,16,00,01,0.00
2013,05,16,00,02,0.00
2013,05,16,00,03,0.00
2013,05,16,00,04,0.00
2013,05,16,00,05,0.00
2013,05,16,00,06,0.00
2013,05,16,00,07,0.00
2013,05,16,00,08,0.00
2013,05,16,00,09,0.00
2013,05,16,00,10,0.00
2013,05,16,00,11,0.00
2013,05,16,00,12,0.00
2013,05,16,00,13,0.00
2013,05,16,00,14,0.00
2013,05,16,00,15,0.00
2013,05,16,00,16,0.00
2013,05,16,00,17,0.00
2013,05,16,00,18,0.00
2013,05,16,00,19,0.00
2013,05,16,00,20,0.00
2013,05,16,00,21,0.00
2013,05,16,00,22,0.00
2013,05,16,00,23,0.00
2013,05,16,00,24,0.00
2013,05,16,00,25,0.00
2013,05,16,00,26,0.00
2013,05,16,00,27,0.00
2013,05,16,00,28,0.00
2013,05,16,00,29,0.00
2013,05,16,00,30,0.00
2013,05,16,00,31,0.00
2013,05,16,00,32,0.00
2013,05,16,00,33,0.00
2013,05,16,00,34,0.00
2013,05,16,00,35,0.00
2013,05,16,00,36,0.00
2013,05,16,00,37,0.00
2013,05,16,00,38,0.00
2013,05,16,00,39,0.00
2013,05,16,00,40,0.00
2013,05,16,00,41,0.00
2013,05,16,00,42,0.00
2013,05,16,00,43,0.00
2013,05,16,00,44,0.00
2013,05,16,00,45,0.00
2013,05,16,00,46,0.00
2013,05,16,00,47,0.00
2013,05,16,00,48,0.00
2013,05,16,00,49,0.00
2013,05,16,00,50,0.00
2013,05,16,00,51,0.00
2013,05,16,00,52,0.00
2013,05,16,00,53,0.00
2013,05,16,00,54,0.00
2013,05,16,00,55,0.00
2013,05,16,00,56,0.00
2013,05,16,00,57,0.00
2013,05,16,00,58,0.00
2013,05,16,00,59,0.00
2013,05,16,01,00,0.00
2013,05,16,01,01,0.00
2013,05,16,01,02,0.00
2013,05,16,01,03,0.00
2013,05,16,01,04,0.00
2013,05,16,01,05,0.00
2013,05,16,01,06,0.00
2013,05,16,01,07,0.00
2013,05,16,01,08,0.00
2013,05,16,01,09,0.00
2013,05,16,01,10,0.00
2013,05,16,01,11,0.00
2013,05,16,01,12,0.00
2013,05,16,01,13,0.00
2013,05,16,01,14,0.00
2013,05,16,01,15,0.00
2013,05,16,01,16,0.00
2013,05,16,01,17,0.00
2013,05,16,01,18,0.00
2013,05,16,01,19,0.00
2013,05,16,01,20,0.00
2013,05,16,01,21,0.00
2013,05,16,01,22,0.00
2013,05,16,01,23,0.00
2013,05,16,01,24,0.00
2013,05,16,01,25,0.00
2013,05,16,01,26,0.00
2013,05,16,01,27,0.00
2013,05,16,01,28,0.00
2013,05,16,01,29,0.00
2013,05,16,01,30,0.00
2013,05,16,01,31,0.00
2013,05,16,01,32,0.00
2013,05,16,01,33,0.00
2013,05,16,01,34,0.00
2013,05,16,01,35,0.00
2013,05,16,01,36,0.00
2013,05,16,01,37,0.00
2013,05,16,01,38,0.00
2013,05,16,01,39,0.00
2013,05,16,01,40,0.00
2013,05,16,01,41,0.00
2013,05,16,01,42,0.00
2013,05,16,01,43,0.00
2013,05,16,01,44,0.00
2013,05,16,01,45,0.00
2013,05,16,01,46,0.00
2013,05,16,01,47,0.00
2013,05,16,01,48,0.00
2013,05,16,01,49,0.00
2013,05,16,01,50,0.00
2013,05,16,01,51,0.00
2013,05,16,01,52,0.00
2013,05,16,01,53,0.00
2013,05,16,01,54,0.00
2013,05,16,01,55,0.00
2013,05,16,01,56,0.00
2013,05,16,01,57,0.00
2013,05,16,01,58,0.00
2013,05,16,01,59,0.00
2013,05,16,02,00,0.00
2013,05,16,02,01,0.00
2013,05,16,02,02,0.00
2013,05,16,02,03,0.00
2013,05,16,02,04,0.00
2013,05,16,02,05,0.00
2013,05,16,02,06,0.00
2013,05,16,02,07,0.00
2013,05,16,02,08,0.00
2013,05,16,02,09,0.00
2013,05,16,02,10,0.00
2013,05,16,02,11,0.00
2013,05,16,02,12,0.00
2013,05,16,02,13,0.00
2013,05,16,02,14,0.00
2013,05,16,02,15,0.00
2013,05,16,02,16,0.00
2013,05,16,02,17,0.00
2013,05,16,02,18,0.00
2013,05,16,02,19,0.00
2013,05,16,02,20,0.00
2013,05,16,02,21,0.00
2013,05,16,02,22,0.00
2013,05,16,02,23,0.00
2013,05,16,02,24,0.00
2013,05,16,02,25,0.00
2013,05,16,02,26,0.00
2013,05,16,02,27,0.00
2013,05,16,02,28,0.00
2013,05,16,02,29,0.00
2013,05,16,02,30,0.00
2013,05,16,02,31,0.00
2013,05,16,02,32,0.00
2013,05,16,02,33,0.00
2013,05,16,02,34,0.00
2013,05,16,02,35,0.00
2013,05,16,02,36,0.00
2013,05,16,02,37,0.00
2013,05,16,02,38,0.00
2013,05,16,02,39,0.00
2013,05,16,02,40,0.00
2013,05,16,02,41,0.00
2013,05,16,02,42,0.00
2013,05,16,02,43,0.00
2013,05,16,02,44,0.00
2013,05,16,02,45,0.00
2013,05,16,02,46,0.00
2013,05,16,02,47,0.00
2013,05,16,02,48,0.00
2013,05,16,02,49,0.00
2013,05,16,02,50,0.00
2013,05,16,02,51,0.00
2013,05,16,02,52,0.00
2013,05,16,02,53,0.00
2013,05,16,02,54,0.00
2013,05,16,02,55,0.00
2013,05,16,02,56,0.00
2013,05,16,02,57,0.00
2013,05,16,02,58,0.00
2013,05,16,02,59,0.00
2013,05,16,03,00,0.00
2013,05,16,03,01,0.00
2013,05,16,03,02,0.00
2013,05,16,03,03,0.00
2013,05,16,03,04,0.00
2013,05,16,03,05,0.00
2013,05,16,03,06,0.00
2013,05,16,03,07,0.00
2013,05,16,03,08,0.00
2013,05,16,03,09,0.00
2013,05,16,03,10,0.00
2013,05,16,03,11,0.00
2013,05,16,03,12,0.00
2013,05,16,03,13,0.00
2013,05,16,03,14,0.00
2013,05,16,03,15,0.00
2013,05,16,03,16,0.00
2013,05,16,03,17,0.00
2013,05,16,03,18,0.00
2013,05,16,03,19,0.00
2013,05,16,03,20,0.00
2013,05,16,03,21,0.00
2013,05,16,03,22,0.00
2013,05,16,03,23,0.00
2013,05,16,03,24,0.00
2013,05,16,03,25,0.00
2013,05,16,03,26,0.00
2013,05,16,03,27,0.00
2013,05,16,03,28,0.00
2013,05,16,03,29,0.00
2013,05,16,03,30,0.00
2013,05,16,03,31,0.00
2013,05,16,03,32,0.00
2013,05,16,03,33,0.00
2013,05,16,03,34,0.00
2013,05,16,03,35,0.00
2013,05,16,03,36,0.00
2013,05,16,03,37,0.00
2013,05,16,03,38,0.00
2013,05,16,03,39,0.00
2013,05,16,03,40,0.00
2013,05,16,03,41,0.00
2013,05,16,03,42,0.00
2013,05,16,03,43,0.00
2013,05,16,03,44,0.00
2013,05,16,03,45,0.00
2013,05,16,03,46,0.00
2013,05,16,03,47,0.00
2013,05,16,03,48,0.00
2013,05,16,03,49,0.00
2013,05,16,03,50,0.00
2013,05,16,03,51,0.00
2013,05,16,03,52,0.00
2013,05,16,03,53,0.00
2013,05,16,03,54,0.00
2013,05,16,03,55,0.00
2013,05,16,03,56,0.00
2013,05,16,03,57,0.00
2013,05,16,03,58,0.00
2013,05,16,03,59,0.00
2013,05,16,04,00,0.00
2013,05,16,04,01,0.00
2013,05,16,04,02,0.00
2013,05,16,04,03,0.00
2013,05,16,04,04,0.00
2013,05,16,04,05,0.00
2013,05,16,04,06,0.00
2013,05,16,04,07,0.00
2013,05,16,04,08,0.00
2013,05,16,04,09,0.00
2013,05,16,04,10,0.00
2013,05,16,04,11,0.00
2013,05,16,04,12,0.00
2013,05,16,04,13,0.00
2013,05,16,04,14,0.00
2013,05,16,04,15,0.00
2013,05,16,04,16,0.00
2013,05,16,04,17,0.00
2013,05,16,04,18,0.00
2013,05,16,04,19,0.00
2013,05,16,04,20,0.00
2013,05,16,04,21,0.00
2013,05,16,04,22,0.00
2013,05,16,04,23,0.00
2013,05,16,04,24,0.00
2013,05,16,04,25,0.00
2013,05,16,04,26,0.00
2013,05,16,04,27,0.00
2013,05,16,04,28,0.00
2013,05,16,04,29,0.00
2013,05,16,04,30,0.00
2013,05,16,04,31,0.00
2013,05,16,04,32,0.00
2013,05,16,04,33,0.00
2013,05,16,04,34,0.00
2013,05,16,04,35,0.00
2013,05,16,04,36,0.00
2013,05,16,04,37,0.00
2013,05,16,04,38,0.00
2013,05,16,04,39,0.00
2013,05,16,04,40,0.00
2013,05,16,04,41,0.00
2013,05,16,04,42,0.00
2013,05,16,04,43,0.00
2013,05,16,04,44,0.00
2013,05,16,04,45,0.00
2013,05,16,04,46,0.00
2013,05,16,04,47,0.00
2013,05,16,04,48,0.00
2013,05,16,04,49,0.00
2013,05,16,04,50,0.00
2013,05,16,04,51,0.00
2013,05,16,04,52,0.00
2013,05,16,04,53,0.00
2013,05,16,04,54,0.00
2013,05,16,04,55,0.00
2013,05,16,04,56,0.00
2013,05,16,04,57,0.00
2013,05,16,04,58,0.00
2013,05,16,04,59,0.00
2013,05,16,05,00,0.00
2013,05,16,05,01,0.00
2013,05,16,05,02,0.00
2013,05,16,05,03,0.00
2013,05,16,05,04,0.00
2013,05,16,05,05,0.00
2013,05,16,05,06,0.00
2013,05,16,05,07,0.00
2013,05,16,05,08,0.00
2013,05,16,05,09,0.00
2013,05,16,05,10,0.00
2013,05,16,05,11,0.00
2013,05,16,05,12,0.00
2013,05,16,05,13,0.00
2013,05,16,05,14,0.00
2013,05,16,05,15,0.00
2013,05,16,05,16,0.00
2013,05,16,05,17,0.00
2013,05,16,05,18,0.00
2013,05,16,05,19,0.00
2013,05,16,05,20,0.00
2013,05,16,05,21,0.00
2013,05,16,05,22,0.00
2013,05,16,05,23,0.00
2013,05,16,05,24,0.00
2013,05,16,05,25,0.00
2013,05,16,05,26,0.00
2013,05,16,05,27,0.00
2013,05,16,05,28,0.00
2013,05,16,05,29,0.00
2013,05,16,05,30,0.00
2013,05,16,05,31,0.00
2013,05,16,05,32,0.00
2013,05,16,05,33,0.00
2013,05,16,05,34,0.00
2013,05,16,05,35,0.00
2013,05,16,05,36,0.00
2013,05,16,05,37,0.00
2013,05,16,05,38,0.00
2013,05,16,05,39,0.00
2013,05,16,05,40,0.00
2013,05,16,05,41,0.00
2013,05,16,05,42,0.00
2013,05,16,05,43,0.00
2013,05,16,05,44,0.00
2013,05,16,05,45,0.00
2013,05,16,05,46,0.00
2013,05,16,05,47,0.00
2013,05,16,05,48,0.00
2013,05,16,05,49,0.00
2013,05,16,05,50,0.00
2013,05,16,05,51,0.00
2013,05,16,05,52,0.00
2013,05,16,05,53,0.00
2013,05,16,05,54,0.00
2013,05,16,05,55,0.00
2013,05,16,05,56,0.00
2013,05,16,05,57,0.00
2013,05,16,05,58,0.00
2013,05,16,05,59,0.00
2013,05,16,06,00,3.90
2013,05,16,06,01,5.00
2013,05,16,06,02,5.00
2013,05,16,06,03,5.00
2013,05,16,06,04,5.00
2013,05,16,06,05,5.00
2013,05,16,06,06,5.00
2013,05,16,06,07,5.90
2013,05,16,06,08,7.00
2013,05,16,06,09,7.00
2013,05,16,06,10,7.00
2013,05,16,06,11,7.00
2013,05,16,06,12,8.70
2013,05,16,06,13,9.00
2013,05,16,06,14,9.00
2013,05,16,06,15,9.40
2013,05,16,06,16,11.00
2013,05,16,06,17,11.00
2013,05,16,06,18,11.40
2013,05,16,06,19,12.00
2013,05,16,06,20,12.00
2013,05,16,06,21,12.00
2013,05,16,06,22,13.60
2013,05,16,06,23,14.00
2013,05,16,06,24,14.00
2013,05,16,06,25,14.00
2013,05,16,06,26,14.00
2013,05,16,06,27,14.00
2013,05,16,06,28,14.70
2013,05,16,06,29,16.00
2013,05,16,06,30,16.00
2013,05,16,06,31,16.00
2013,05,16,06,32,16.00
2013,05,16,06,33,16.00
2013,05,16,06,34,16.00
2013,05,16,06,35,16.00
2013,05,16,06,36,16.00
2013,05,16,06,37,16.00
2013,05,16,06,38,16.60
2013,05,16,06,39,18.00
2013,05,16,06,40,18.00
2013,05,16,06,41,18.00
2013,05,16,06,42,18.00
2013,05,16,06,43,18.00
2013,05,16,06,44,18.00
2013,05,16,06,45,18.00
2013,05,16,06,46,18.00
2013,05,16,06,47,18.00
2013,05,16,06,48,18.00
2013,05,16,06,49,18.00
2013,05,16,06,50,18.00
2013,05,16,06,51,18.00
2013,05,16,06,52,18.50
2013,05,16,06,53,19.00
2013,05,16,06,54,19.00
2013,05,16,06,55,20.60
2013,05,16,06,56,21.00
2013,05,16,06,57,21.00
2013,05,16,06,58,23.00
2013,05,16,06,59,23.00
2013,05,16,07,00,23.50
2013,05,16,07,01,25.00
2013,05,16,07,02,25.50
2013,05,16,07,03,26.00
2013,05,16,07,04,26.00
2013,05,16,07,05,27.30
2013,05,16,07,06,28.00
2013,05,16,07,07,28.00
2013,05,16,07,08,28.00
2013,05,16,07,09,28.20
2013,05,16,07,10,30.40
2013,05,16,07,11,32.30
2013,05,16,07,12,33.80
2013,05,16,07,13,35.00
2013,05,16,07,14,35.00
2013,05,16,07,15,35.00
2013,05,16,07,16,35.00
2013,05,16,07,17,35.00
2013,05,16,07,18,35.00
2013,05,16,07,19,33.10
2013,05,16,07,20,33.00
2013,05,16,07,21,33.00
2013,05,16,07,22,33.50
2013,05,16,07,23,35.70
2013,05,16,07,24,37.00
2013,05,16,07,25,38.10
2013,05,16,07,26,39.00
2013,05,16,07,27,39.00
2013,05,16,07,28,39.00
2013,05,16,07,29,39.00
2013,05,16,07,30,39.00
2013,05,16,07,31,39.00
2013,05,16,07,32,39.00
2013,05,16,07,33,39.00
2013,05,16,07,34,39.40
2013,05,16,07,35,40.80
2013,05,16,07,36,43.00
2013,05,16,07,37,44.00
2013,05,16,07,38,44.00
2013,05,16,07,39,44.00
2013,05,16,07,40,44.00
2013,05,16,07,41,44.00
2013,05,16,07,42,44.20
2013,05,16,07,43,46.00
2013,05,16,07,44,46.30
2013,05,16,07,45,47.80
2013,05,16,07,46,49.90
2013,05,16,07,47,52.60
2013,05,16,07,48,57.60
2013,05,16,07,49,62.10
2013,05,16,07,50,64.60
2013,05,16,07,51,66.70
2013,05,16,07,52,68.90
2013,05,16,07,53,70.00
2013,05,16,07,54,70.00
2013,05,16,07,55,70.50
2013,05,16,07,56,72.00
2013,05,16,07,57,73.70
2013,05,16,07,58,76.00
2013,05,16,07,59,74.90
2013,05,16,08,00,74.00
2013,05,16,08,01,75.60
2013,05,16,08,02,76.90
2013,05,16,08,03,77.10
2013,05,16,08,04,79.30
2013,05,16,08,05,81.00
2013,05,16,08,06,81.00
2013,05,16,08,07,81.70
2013,05,16,08,08,83.40
2013,05,16,08,09,84.00
2013,05,16,08,10,84.00
2013,05,16,08,11,83.30
2013,05,16,08,12,81.50
2013,05,16,08,13,79.30
2013,05,16,08,14,77.10
2013,05,16,08,15,76.00
2013,05,16,08,16,76.00
2013,05,16,08,17,76.30
2013,05,16,08,18,77.80
2013,05,16,08,19,79.90
2013,05,16,08,20,81.00
2013,05,16,08,21,82.20
2013,05,16,08,22,83.70
2013,05,16,08,23,84.00
2013,05,16,08,24,84.00
2013,05,16,08,25,82.80
2013,05,16,08,26,78.70
2013,05,16,08,27,77.00
2013,05,16,08,28,77.60
2013,05,16,08,29,79.80
2013,05,16,08,30,80.10
2013,05,16,08,31,77.90
2013,05,16,08,32,76.30
2013,05,16,08,33,76.00
2013,05,16,08,34,76.00
2013,05,16,08,35,76.00
2013,05,16,08,36,76.00
2013,05,16,08,37,77.20
2013,05,16,08,38,79.00
2013,05,16,08,39,78.40
2013,05,16,08,40,77.80
2013,05,16,08,41,80.80
2013,05,16,08,42,83.00
2013,05,16,08,43,83.70
2013,05,16,08,44,85.40
2013,05,16,08,45,89.00
2013,05,16,08,46,96.30
2013,05,16,08,47,101.90
2013,05,16,08,48,105.00
2013,05,16,08,49,105.00
2013,05,16,08,50,105.50
2013,05,16,08,51,107.00
2013,05,16,08,52,108.80
2013,05,16,08,53,112.60
2013,05,16,08,54,121.80
2013,05,16,08,55,134.00
2013,05,16,08,56,135.40
2013,05,16,08,57,132.40
2013,05,16,08,58,125.10
2013,05,16,08,59,119.60
2013,05,16,09,00,116.00
2013,05,16,09,01,115.50
2013,05,16,09,02,110.80
2013,05,16,09,03,102.80
2013,05,16,09,04,100.00
2013,05,16,09,05,100.00
2013,05,16,09,06,101.30
2013,05,16,09,07,103.50
2013,05,16,09,08,104.00
2013,05,16,09,09,102.00
2013,05,16,09,10,99.70
2013,05,16,09,11,97.40
2013,05,16,09,12,95.00
2013,05,16,09,13,97.40
2013,05,16,09,14,104.20
2013,05,16,09,15,111.70
2013,05,16,09,16,126.30
2013,05,16,09,17,145.90
2013,05,16,09,18,156.60
2013,05,16,09,19,155.50
2013,05,16,09,20,142.60
2013,05,16,09,21,133.40
2013,05,16,09,22,127.80
2013,05,16,09,23,127.00
2013,05,16,09,24,127.30
2013,05,16,09,25,132.10
2013,05,16,09,26,143.60
2013,05,16,09,27,153.10
2013,05,16,09,28,156.00
2013,05,16,09,29,150.70
2013,05,16,09,30,146.40
2013,05,16,09,31,144.30
2013,05,16,09,32,150.10
2013,05,16,09,33,166.20
2013,05,16,09,34,186.60
2013,05,16,09,35,195.00
2013,05,16,09,36,192.10
2013,05,16,09,37,186.50
2013,05,16,09,38,182.60
2013,05,16,09,39,177.60
2013,05,16,09,40,176.00
2013,05,16,09,41,171.80
2013,05,16,09,42,165.10
2013,05,16,09,43,161.80
2013,05,16,09,44,159.60
2013,05,16,09,45,158.50
2013,05,16,09,46,163.10
2013,05,16,09,47,172.60
2013,05,16,09,48,181.50
2013,05,16,09,49,183.80
2013,05,16,09,50,183.00
2013,05,16,09,51,185.40
2013,05,16,09,52,185.10
2013,05,16,09,53,182.80
2013,05,16,09,54,173.70
2013,05,16,09,55,172.30
2013,05,16,09,56,176.00
2013,05,16,09,57,185.40
2013,05,16,09,58,199.40
2013,05,16,09,59,218.00
2013,05,16,10,00,231.30
2013,05,16,10,01,234.00
2013,05,16,10,02,231.00
2013,05,16,10,03,219.80
2013,05,16,10,04,209.50
2013,05,16,10,05,206.90
2013,05,16,10,06,206.20
2013,05,16,10,07,210.30
2013,05,16,10,08,221.90
2013,05,16,10,09,231.20
2013,05,16,10,10,231.50
2013,05,16,10,11,229.00
2013,05,16,10,12,234.60
2013,05,16,10,13,245.70
2013,05,16,10,14,249.70
2013,05,16,10,15,250.90
2013,05,16,10,16,258.40
2013,05,16,10,17,261.60
2013,05,16,10,18,260.60
2013,05,16,10,19,261.20
2013,05,16,10,20,259.20
2013,05,16,10,21,255.50
2013,05,16,10,22,246.50
2013,05,16,10,23,238.10
2013,05,16,10,24,236.80
2013,05,16,10,25,245.10
2013,05,16,10,26,252.20
2013,05,16,10,27,250.50
2013,05,16,10,28,245.50
2013,05,16,10,29,243.30
2013,05,16,10,30,242.00
2013,05,16,10,31,234.50
2013,05,16,10,32,220.60
2013,05,16,10,33,202.20
2013,05,16,10,34,190.10
2013,05,16,10,35,186.40
2013,05,16,10,36,186.00
2013,05,16,10,37,190.10
2013,05,16,10,38,195.20
2013,05,16,10,39,197.60
2013,05,16,10,40,200.50
2013,05,16,10,41,202.00
2013,05,16,10,42,202.80
2013,05,16,10,43,208.50
2013,05,16,10,44,217.80
2013,05,16,10,45,229.90
2013,05,16,10,46,243.00
2013,05,16,10,47,253.60
2013,05,16,10,48,262.00
2013,05,16,10,49,270.50
2013,05,16,10,50,281.60
2013,05,16,10,51,295.00
2013,05,16,10,52,304.20
2013,05,16,10,53,308.00
2013,05,16,10,54,304.50
2013,05,16,10,55,294.40
2013,05,16,10,56,285.10
2013,05,16,10,57,279.00
2013,05,16,10,58,268.70
2013,05,16,10,59,253.20
2013,05,16,11,00,242.80
2013,05,16,11,01,242.40
2013,05,16,11,02,251.00
2013,05,16,11,03,262.40
2013,05,16,11,04,272.50
2013,05,16,11,05,273.40
2013,05,16,11,06,266.80
2013,05,16,11,07,254.90
2013,05,16,11,08,244.60
2013,05,16,11,09,243.90
2013,05,16,11,10,252.60
2013,05,16,11,11,262.70
2013,05,16,11,12,270.40
2013,05,16,11,13,278.70
2013,05,16,11,14,289.90
2013,05,16,11,15,306.20
2013,05,16,11,16,318.50
2013,05,16,11,17,323.80
2013,05,16,11,18,322.90
2013,05,16,11,19,319.00
2013,05,16,11,20,316.30
2013,05,16,11,21,322.60
2013,05,16,11,22,332.60
2013,05,16,11,23,338.80
2013,05,16,11,24,344.40
2013,05,16,11,25,350.50
2013,05,16,11,26,355.80
2013,05,16,11,27,356.00
2013,05,16,11,28,352.10
2013,05,16,11,29,348.60
2013,05,16,11,30,351.20
2013,05,16,11,31,354.70
2013,05,16,11,32,356.80
2013,05,16,11,33,355.00
2013,05,16,11,34,353.30
2013,05,16,11,35,343.90
2013,05,16,11,36,339.10
2013,05,16,11,37,350.50
2013,05,16,11,38,400.90
2013,05,16,11,39,457.00
2013,05,16,11,40,454.90
2013,05,16,11,41,418.40
2013,05,16,11,42,365.40
2013,05,16,11,43,314.10
2013,05,16,11,44,277.80
2013,05,16,11,45,267.80
2013,05,16,11,46,274.00
2013,05,16,11,47,285.40
2013,05,16,11,48,294.90
2013,05,16,11,49,299.00
2013,05,16,11,50,302.00
2013,05,16,11,51,312.20
2013,05,16,11,52,340.00
2013,05,16,11,53,348.00
2013,05,16,11,54,348.00
2013,05,16,11,55,354.00
2013,05,16,11,56,405.50
2013,05,16,11,57,388.70
2013,05,16,11,58,381.70
2013,05,16,11,59,391.40
2013,05,16,12,00,413.00
2013,05,16,12,01,452.60
2013,05,16,12,02,473.00
2013,05,16,12,03,473.00
2013,05,16,12,04,392.00
2013,05,16,12,05,389.60
2013,05,16,12,06,427.00
2013,05,16,12,07,427.00
2013,05,16,12,08,427.50
2013,05,16,12,09,432.50
2013,05,16,12,10,456.50
2013,05,16,12,11,502.20
2013,05,16,12,12,534.50
2013,05,16,12,13,541.00
2013,05,16,12,14,541.00
2013,05,16,12,15,469.60
2013,05,16,12,16,488.50
2013,05,16,12,17,498.70
2013,05,16,12,18,425.60
2013,05,16,12,19,406.00
2013,05,16,12,20,381.10
2013,05,16,12,21,373.50
2013,05,16,12,22,374.60
2013,05,16,12,23,377.20
2013,05,16,12,24,376.70
2013,05,16,12,25,376.00
2013,05,16,12,26,382.00
2013,05,16,12,27,397.90
2013,05,16,12,28,432.20
2013,05,16,12,29,467.30
2013,05,16,12,30,495.20
2013,05,16,12,31,482.90
2013,05,16,12,32,498.30
2013,05,16,12,33,504.90
2013,05,16,12,34,517.90
2013,05,16,12,35,562.40
2013,05,16,12,36,634.80
2013,05,16,12,37,603.40
2013,05,16,12,38,592.60
2013,05,16,12,39,610.90
2013,05,16,12,40,594.00
2013,05,16,12,41,606.00
2013,05,16,12,42,606.00
2013,05,16,12,43,564.00
2013,05,16,12,44,518.50
2013,05,16,12,45,566.60
2013,05,16,12,46,587.00
2013,05,16,12,47,663.00
2013,05,16,12,48,667.60
2013,05,16,12,49,641.40
2013,05,16,12,50,640.00
2013,05,16,12,51,640.00
2013,05,16,12,52,640.00
2013,05,16,12,53,891.00
2013,05,16,12,54,1357.00
2013,05,16,12,55,1357.00
2013,05,16,12,56,836.20
2013,05,16,12,57,489.00
2013,05,16,12,58,489.00
2013,05,16,12,59,508.50
2013,05,16,13,00,602.20
2013,05,16,13,01,522.40
2013,05,16,13,02,557.10
2013,05,16,13,03,472.50
2013,05,16,13,04,437.90
2013,05,16,13,05,433.80
2013,05,16,13,06,437.10
2013,05,16,13,07,459.00
2013,05,16,13,08,453.40
2013,05,16,13,09,439.40
2013,05,16,13,10,434.40
2013,05,16,13,11,434.00
2013,05,16,13,12,429.10
2013,05,16,13,13,381.40
2013,05,16,13,14,364.50
2013,05,16,13,15,354.20
2013,05,16,13,16,341.90
2013,05,16,13,17,323.60
2013,05,16,13,18,309.80
2013,05,16,13,19,299.70
2013,05,16,13,20,291.40
2013,05,16,13,21,281.90
2013,05,16,13,22,276.20
2013,05,16,13,23,275.80
2013,05,16,13,24,274.30
2013,05,16,13,25,277.20
2013,05,16,13,26,285.50
2013,05,16,13,27,298.50
2013,05,16,13,28,305.00
2013,05,16,13,29,301.80
2013,05,16,13,30,284.60
2013,05,16,13,31,268.20
2013,05,16,13,32,261.00
2013,05,16,13,33,258.10
2013,05,16,13,34,262.30
2013,05,16,13,35,265.60
2013,05,16,13,36,271.60
2013,05,16,13,37,279.80
2013,05,16,13,38,286.60
2013,05,16,13,39,296.50
2013,05,16,13,40,307.00
2013,05,16,13,41,319.40
2013,05,16,13,42,333.30
2013,05,16,13,43,343.60
2013,05,16,13,44,349.90
2013,05,16,13,45,357.50
2013,05,16,13,46,363.50
2013,05,16,13,47,372.30
2013,05,16,13,48,382.80
2013,05,16,13,49,393.90
2013,05,16,13,50,418.00
2013,05,16,13,51,466.70
2013,05,16,13,52,494.60
2013,05,16,13,53,523.80
2013,05,16,13,54,553.40
2013,05,16,13,55,500.20
2013,05,16,13,56,504.20
2013,05,16,13,57,510.30
2013,05,16,13,58,475.00
2013,05,16,13,59,433.20
2013,05,16,14,00,395.00
2013,05,16,14,01,356.50
2013,05,16,14,02,328.50
2013,05,16,14,03,306.70
2013,05,16,14,04,290.60
2013,05,16,14,05,279.90
2013,05,16,14,06,276.20
2013,05,16,14,07,279.40
2013,05,16,14,08,288.60
2013,05,16,14,09,300.00
2013,05,16,14,10,313.90
2013,05,16,14,11,331.00
2013,05,16,14,12,351.50
2013,05,16,14,13,376.20
2013,05,16,14,14,387.00
2013,05,16,14,15,387.00
2013,05,16,14,16,387.00
2013,05,16,14,17,451.50
2013,05,16,14,18,417.10
2013,05,16,14,19,410.30
2013,05,16,14,20,365.60
2013,05,16,14,21,352.10
2013,05,16,14,22,337.50
2013,05,16,14,23,325.80
2013,05,16,14,24,316.10
2013,05,16,14,25,311.60
2013,05,16,14,26,311.00
2013,05,16,14,27,314.40
2013,05,16,14,28,316.00
2013,05,16,14,29,318.00
2013,05,16,14,30,318.40
2013,05,16,14,31,321.50
2013,05,16,14,32,327.60
2013,05,16,14,33,332.00
2013,05,16,14,34,349.80
2013,05,16,14,35,383.70
2013,05,16,14,36,418.50
2013,05,16,14,37,438.50
2013,05,16,14,38,441.00
2013,05,16,14,39,441.00
2013,05,16,14,40,444.10
2013,05,16,14,41,475.00
2013,05,16,14,42,475.20
2013,05,16,14,43,476.00
2013,05,16,14,44,476.00
2013,05,16,14,45,476.00
2013,05,16,14,46,476.00
2013,05,16,14,47,421.30
2013,05,16,14,48,394.00
2013,05,16,14,49,922.70
2013,05,16,14,50,955.70
2013,05,16,14,51,1015.90
2013,05,16,14,52,982.20
2013,05,16,14,53,941.30
2013,05,16,14,54,923.60
2013,05,16,14,55,911.30
2013,05,16,14,56,904.50
2013,05,16,14,57,898.90
2013,05,16,14,58,891.50
2013,05,16,14,59,885.20
2013,05,16,15,00,884.00
2013,05,16,15,01,882.20
2013,05,16,15,02,878.10
2013,05,16,15,03,868.60
2013,05,16,15,04,860.70
2013,05,16,15,05,856.70
2013,05,16,15,06,846.60
2013,05,16,15,07,835.00
2013,05,16,15,08,823.40
2013,05,16,15,09,815.70
2013,05,16,15,10,810.00
2013,05,16,15,11,807.20
2013,05,16,15,12,807.00
2013,05,16,15,13,804.70
2013,05,16,15,14,802.00
2013,05,16,15,15,803.40
2013,05,16,15,16,805.20
2013,05,16,15,17,796.00
2013,05,16,15,18,786.90
2013,05,16,15,19,784.80
2013,05,16,15,20,784.00
2013,05,16,15,21,785.60
2013,05,16,15,22,784.20
2013,05,16,15,23,782.10
2013,05,16,15,24,777.00
2013,05,16,15,25,777.00
2013,05,16,15,26,775.90
2013,05,16,15,27,772.00
2013,05,16,15,28,770.90
2013,05,16,15,29,766.00
2013,05,16,15,30,759.80
2013,05,16,15,31,758.30
2013,05,16,15,32,758.00
2013,05,16,15,33,758.00
2013,05,16,15,34,758.00
2013,05,16,15,35,757.60
2013,05,16,15,36,753.00
2013,05,16,15,37,748.40
2013,05,16,15,38,744.50
2013,05,16,15,39,740.00
2013,05,16,15,40,739.00
2013,05,16,15,41,738.00
2013,05,16,15,42,739.30
2013,05,16,15,43,737.60
2013,05,16,15,44,735.30
2013,05,16,15,45,729.30
2013,05,16,15,46,730.70
2013,05,16,15,47,728.00
2013,05,16,15,48,728.30
2013,05,16,15,49,728.70
2013,05,16,15,50,727.20
2013,05,16,15,51,725.00
2013,05,16,15,52,722.70
2013,05,16,15,53,719.90
2013,05,16,15,54,715.10
2013,05,16,15,55,714.80
2013,05,16,15,56,710.30
2013,05,16,15,57,706.30
2013,05,16,15,58,699.70
2013,05,16,15,59,698.80
2013,05,16,16,00,700.70
2013,05,16,16,01,699.10
2013,05,16,16,02,696.00
2013,05,16,16,03,692.10
2013,05,16,16,04,689.70
2013,05,16,16,05,689.00
2013,05,16,16,06,687.30
2013,05,16,16,07,684.20
2013,05,16,16,08,683.60
2013,05,16,16,09,680.00
2013,05,16,16,10,679.70
2013,05,16,16,11,677.60
2013,05,16,16,12,674.20
2013,05,16,16,13,672.00
2013,05,16,16,14,669.20
2013,05,16,16,15,669.30
2013,05,16,16,16,666.80
2013,05,16,16,17,667.60
2013,05,16,16,18,663.30
2013,05,16,16,19,659.00
2013,05,16,16,20,658.60
2013,05,16,16,21,656.10
2013,05,16,16,22,653.30
2013,05,16,16,23,651.10
2013,05,16,16,24,649.50
2013,05,16,16,25,647.70
2013,05,16,16,26,645.70
2013,05,16,16,27,643.40
2013,05,16,16,28,640.30
2013,05,16,16,29,638.10
2013,05,16,16,30,635.00
2013,05,16,16,31,634.70
2013,05,16,16,32,631.90
2013,05,16,16,33,627.90
2013,05,16,16,34,625.10
2013,05,16,16,35,624.00
2013,05,16,16,36,622.20
2013,05,16,16,37,619.60
2013,05,16,16,38,614.20
2013,05,16,16,39,613.00
2013,05,16,16,40,612.10
2013,05,16,16,41,607.70
2013,05,16,16,42,605.00
2013,05,16,16,43,603.80
2013,05,16,16,44,600.30
2013,05,16,16,45,597.70
2013,05,16,16,46,596.00
2013,05,16,16,47,593.60
2013,05,16,16,48,591.30
2013,05,16,16,49,587.80
2013,05,16,16,50,585.30
2013,05,16,16,51,584.10
2013,05,16,16,52,579.80
2013,05,16,16,53,577.80
2013,05,16,16,54,576.40
2013,05,16,16,55,574.30
2013,05,16,16,56,571.70
2013,05,16,16,57,568.90
2013,05,16,16,58,566.90
2013,05,16,16,59,563.90
2013,05,16,17,00,559.80
2013,05,16,17,01,555.60
2013,05,16,17,02,555.00
2013,05,16,17,03,551.60
2013,05,16,17,04,547.80
2013,05,16,17,05,546.40
2013,05,16,17,06,545.00
2013,05,16,17,07,542.90
2013,05,16,17,08,539.00
2013,05,16,17,09,536.80
2013,05,16,17,10,534.00
2013,05,16,17,11,531.40
2013,05,16,17,12,527.60
2013,05,16,17,13,524.20